Buies Creek, NC

10:54 AM EDT on August 26, 2016 (GMT -0400)
Harnett County

Weather History for KHRJ - March, 2014

Change the Weather History Date:

Friday, March 7, 2014

  Actual Average Record
Temperature  
Mean Temperature 37 °F -  
Max Temperature 39 °F 61 °F 84 °F (1974)
Min Temperature 35 °F 38 °F 23 °F (2015)
Degree Days  
Heating Degree Days 28    
Moisture  
Dew Point 36 °F    
Average Humidity 96    
Maximum Humidity 97    
Minimum Humidity 86    
Precipitation  
Precipitation 0.80 in - - ()
Sea Level Pressure  
Sea Level Pressure 29.91 in    
Wind  
Wind Speed 13 mph (North)    
Max Wind Speed 20 mph    
Max Gust Speed 32 mph    
Visibility 7 miles    
Events Rain    
Averages and records for this station are not official NWS values.
T = Trace of Precipitation, MM = Missing Value Source: NWS Daily Summary

Daily Weather History Graph

Daily Weather History Graph

Search for Another Location

Airport or City:

Trip Planner

Search our weather history database for the weather conditions in past years. The results will help you decide how hot, cold, wet, or windy it might be!

Date:

Astronomy

Mar. 07, 2014 Rise Set
Actual Time 6:36 AM EST 6:15 PM EST
Civil Twilight 6:11 AM EST 6:41 PM EST
Nautical Twilight 5:41 AM EST 7:10 PM EST
Astronomical Twilight 5:12 AM EST 7:40 PM EST
Moon 10:41 AM EST (3/7) 12:06 AM EST (3/7)
Length of Visible Light 12h 29m
Length of Day
11h 39m
Waxing Crescent, 42% of the Moon is Illuminated
Mar 7
Waxing Crescent
Mar 8
First Quarter
Mar 16
Full
Mar 23
Last Quarter
Mar 30
New

Hourly Weather History & Observations

Time (EST) Temp. Windchill Dew Point Humidity Pressure Visibility Wind Dir Wind Speed Gust Speed Precip Events Conditions
12:15 AM 36.0 °F 27.1 °F 34.9 °F 96% 30.01 in 5.0 mi North 13.8 mph 31.1 mph 0.01 in Rain Light Rain
12:35 AM 36.1 °F 27.3 °F 35.2 °F 97% 30.00 in 5.0 mi NNE 13.8 mph 24.2 mph 0.03 in Rain Rain
12:55 AM 36.1 °F 27.3 °F 35.2 °F 97% 29.99 in 4.0 mi NNE 13.8 mph 21.9 mph 0.06 in Rain Light Rain
1:15 AM 36.5 °F 27.4 °F 35.6 °F 97% 29.98 in 3.0 mi North 15.0 mph 26.5 mph 0.04 in Rain Rain
1:35 AM 36.5 °F 27.0 °F 35.6 °F 97% 29.96 in 3.0 mi North 16.1 mph 27.6 mph 0.09 in Rain Rain
1:55 AM 36.5 °F 27.0 °F 35.6 °F 97% 29.95 in 3.0 mi North 16.1 mph 26.5 mph 0.13 in Rain Light Rain
2:15 AM 36.5 °F 27.8 °F 35.6 °F 97% 29.94 in 2.5 mi North 13.8 mph 26.5 mph 0.05 in   Overcast
2:35 AM 36.5 °F 27.8 °F 35.6 °F 97% 29.92 in 3.0 mi NNE 13.8 mph 27.6 mph 0.09 in Rain Rain
2:55 AM 36.5 °F 26.0 °F 35.6 °F 97% 29.91 in 4.0 mi NNE 19.6 mph 32.2 mph 0.12 in Rain Light Rain
3:15 AM 36.9 °F 28.2 °F 36.0 °F 97% 29.94 in 4.0 mi North 13.8 mph 23.0 mph 0.03 in Rain Light Rain
3:35 AM 37.0 °F 27.4 °F 36.1 °F 97% 29.94 in 5.0 mi North 17.3 mph 27.6 mph 0.04 in Rain Light Rain
3:55 AM 36.7 °F 28.4 °F 35.8 °F 97% 29.93 in 5.0 mi North 12.7 mph 25.3 mph 0.06 in Rain Light Rain
4:15 AM 36.7 °F 27.6 °F 35.8 °F 97% 29.93 in 4.0 mi North 15.0 mph 25.3 mph 0.02 in Rain Light Rain
4:35 AM 36.5 °F 27.8 °F 35.6 °F 97% 29.91 in 4.0 mi North 13.8 mph 27.6 mph 0.04 in Rain Light Rain
4:55 AM 36.5 °F 27.8 °F 35.6 °F 97% 29.91 in 4.0 mi North 13.8 mph 25.3 mph 0.06 in Rain Light Rain
5:15 AM 36.5 °F 28.2 °F 35.6 °F 97% 29.90 in 5.0 mi North 12.7 mph 21.9 mph 0.01 in Rain Rain
5:35 AM 36.5 °F 27.0 °F 35.6 °F 97% 29.89 in 4.0 mi North 16.1 mph 28.8 mph 0.04 in Rain Light Rain
5:55 AM 36.7 °F 28.4 °F 35.6 °F 96% 29.89 in 7.0 mi North 12.7 mph 29.9 mph 0.05 in Rain Light Rain
6:15 AM 37.0 °F 28.9 °F 36.1 °F 97% 29.89 in 5.0 mi North 12.7 mph 21.9 mph 0.01 in Rain Light Rain
6:35 AM 37.0 °F 27.4 °F 36.3 °F 97% 29.90 in 7.0 mi North 17.3 mph 24.2 mph 0.02 in Rain Rain
6:55 AM 37.4 °F 28.9 °F 36.3 °F 96% 29.90 in 10.0 mi North 13.8 mph 26.5 mph 0.03 in   Overcast
7:15 AM 37.4 °F 27.8 °F 36.3 °F 96% 29.90 in 10.0 mi North 17.3 mph 21.9 mph N/A   Overcast
7:35 AM 37.4 °F 28.5 °F 36.1 °F 95% 29.90 in 7.0 mi North 15.0 mph 20.7 mph N/A   Overcast
7:55 AM 37.4 °F 30.3 °F 36.5 °F 97% 29.92 in 4.0 mi North 10.4 mph 25.3 mph N/A   Overcast
8:15 AM 37.4 °F 28.5 °F 36.5 °F 97% 29.92 in 10.0 mi North 15.0 mph 20.7 mph N/A   Overcast
8:35 AM 37.6 °F 28.8 °F 36.5 °F 96% 29.92 in 10.0 mi North 15.0 mph 25.3 mph N/A   Overcast
8:55 AM 37.8 °F 29.0 °F 36.5 °F 95% 29.92 in 10.0 mi North 15.0 mph 26.5 mph N/A   Overcast
9:15 AM 37.8 °F 29.4 °F 36.7 °F 96% 29.92 in 10.0 mi North 13.8 mph 20.7 mph N/A   Light Drizzle
9:35 AM 37.6 °F 30.5 °F 36.5 °F 96% 29.92 in 7.0 mi North 10.4 mph 21.9 mph N/A Rain Light Rain
9:55 AM 37.8 °F 29.4 °F 36.7 °F 96% 29.91 in 10.0 mi North 13.8 mph 18.4 mph 0.01 in Rain Rain
10:20 AM 37.6 °F 30.0 °F 36.5 °F 96% 29.91 in 10.0 mi North 11.5 mph 25.3 mph N/A Rain Light Rain
10:35 AM 37.9 °F 30.5 °F 36.9 °F 96% 29.90 in 10.0 mi North 11.5 mph 21.9 mph N/A   Drizzle
10:55 AM 38.3 °F 30.5 °F 36.9 °F 95% 29.90 in 10.0 mi North 12.7 mph 23.0 mph 0.01 in   Drizzle
11:15 AM 38.3 °F 29.3 °F 36.7 °F 94% 29.90 in 3.0 mi North 16.1 mph 27.6 mph N/A   Drizzle
11:35 AM 38.3 °F 30.1 °F 37.4 °F 97% 29.89 in 2.0 mi North 13.8 mph 21.9 mph 0.03 in Rain Heavy Rain
11:55 AM 37.9 °F 29.2 °F 36.9 °F 96% 29.88 in 4.0 mi North 15.0 mph 25.3 mph 0.06 in Rain Light Rain
12:15 PM 38.3 °F 31.4 °F 37.2 °F 96% 29.87 in 10.0 mi North 10.4 mph 23.0 mph N/A   Overcast
12:35 PM 38.3 °F 29.7 °F 36.7 °F 94% 29.87 in 10.0 mi North 15.0 mph 24.2 mph 0.01 in   Overcast
12:55 PM 38.3 °F 29.7 °F 36.9 °F 95% 29.86 in 7.0 mi North 15.0 mph 24.2 mph 0.01 in   Overcast
1:15 PM 38.3 °F 30.9 °F 36.9 °F 95% 29.85 in 10.0 mi North 11.5 mph 23.0 mph N/A   Overcast
1:35 PM 38.5 °F 31.6 °F 37.0 °F 95% 29.85 in 10.0 mi North 10.4 mph 24.2 mph N/A   Overcast
1:55 PM 38.3 °F 30.9 °F 37.0 °F 95% 29.85 in 7.0 mi North 11.5 mph 16.1 mph N/A Rain Light Rain
2:15 PM 38.8 °F 30.4 °F 37.4 °F 95% 29.83 in 10.0 mi North 15.0 mph 20.7 mph N/A Rain Light Rain
2:35 PM 38.7 °F 31.8 °F 37.4 °F 95% 29.84 in 7.0 mi North 10.4 mph 19.6 mph N/A Rain Rain
3:00 PM 38.8 °F 33.2 °F 38.1 °F 97% 29.84 in 1.5 mi North 8.1 mph 19.6 mph 0.01 in Rain Rain
3:15 PM 39.2 °F 32.0 °F 38.3 °F 97% 29.84 in 2.0 mi North 11.5 mph - 0.03 in Rain Light Rain
3:35 PM 39.6 °F 32.1 °F 38.7 °F 97% 29.84 in 3.0 mi North 12.7 mph 19.6 mph 0.05 in Rain Light Rain
3:55 PM 39.6 °F 33.0 °F 38.8 °F 97% 29.85 in 4.0 mi North 10.4 mph 19.6 mph 0.07 in Rain Light Rain
4:15 PM 39.4 °F 33.2 °F 38.5 °F 97% 29.85 in 7.0 mi NNW 9.2 mph 19.6 mph 0.01 in Rain Rain
4:35 PM 39.4 °F 33.2 °F 38.3 °F 96% 29.85 in 10.0 mi NNW 9.2 mph 20.7 mph 0.02 in Rain Rain
4:55 PM 39.2 °F 33.0 °F 38.3 °F 97% 29.87 in 7.0 mi NNW 9.2 mph 18.4 mph 0.03 in Rain Rain
5:15 PM 39.2 °F 33.0 °F 38.3 °F 97% 29.87 in 5.0 mi North 9.2 mph 16.1 mph 0.01 in Rain Light Rain
5:35 PM 38.8 °F 32.6 °F 38.1 °F 97% 29.88 in 3.0 mi North 9.2 mph 20.7 mph 0.03 in Rain Rain
5:55 PM 38.7 °F 31.4 °F 37.8 °F 97% 29.89 in 4.0 mi North 11.5 mph 17.3 mph 0.05 in Rain Light Rain
6:15 PM 38.3 °F 30.9 °F 37.4 °F 97% 29.89 in 4.0 mi North 11.5 mph 26.5 mph 0.02 in Rain Light Rain
6:35 PM 38.1 °F 30.2 °F 37.0 °F 96% 29.89 in 5.0 mi North 12.7 mph 19.6 mph 0.04 in Rain Light Rain
6:55 PM 37.8 °F 30.7 °F 36.7 °F 96% 29.89 in 10.0 mi North 10.4 mph 18.4 mph 0.05 in Rain Light Rain
7:15 PM 37.6 °F 30.5 °F 36.5 °F 96% 29.90 in 10.0 mi NNW 10.4 mph 17.3 mph N/A   Light Drizzle
7:35 PM 37.4 °F 29.3 °F 36.0 °F 95% 29.90 in 10.0 mi North 12.7 mph - N/A   Mostly Cloudy
7:55 PM 37.0 °F 31.0 °F 35.6 °F 95% 29.90 in 10.0 mi North 8.1 mph - N/A   Scattered Clouds
8:15 PM 36.7 °F 30.5 °F 35.1 °F 94% 29.91 in 10.0 mi NNW 8.1 mph - N/A   Clear
8:35 PM 36.7 °F 32.0 °F 34.9 °F 93% 29.92 in 10.0 mi NNW 5.8 mph - N/A   Clear
8:55 PM 36.5 °F 32.7 °F 34.7 °F 93% 29.93 in 10.0 mi NW 4.6 mph - N/A   Clear
9:15 PM 35.8 °F 31.9 °F 34.3 °F 94% 29.93 in 10.0 mi NW 4.6 mph - N/A   Clear
9:35 PM 35.8 °F 30.9 °F 34.2 °F 94% 29.93 in 10.0 mi NW 5.8 mph - N/A   Clear
9:55 PM 35.2 °F 30.3 °F 34.0 °F 95% 29.94 in 10.0 mi NW 5.8 mph - N/A   Clear
10:15 PM 35.8 °F 30.9 °F 34.2 °F 94% 29.95 in 10.0 mi NW 5.8 mph - N/A   Mostly Cloudy
10:35 PM 35.8 °F 31.9 °F 34.3 °F 94% 29.95 in 10.0 mi NW 4.6 mph - N/A   Scattered Clouds
10:55 PM 36.1 °F 32.3 °F 34.7 °F 94% 29.95 in 10.0 mi NNW 4.6 mph - N/A   Mostly Cloudy
11:15 PM 37.4 °F 32.8 °F 34.7 °F 90% 29.95 in 10.0 mi NNW 5.8 mph - N/A   Overcast
11:35 PM 37.6 °F 34.0 °F 33.8 °F 86% 29.95 in 10.0 mi NW 4.6 mph - N/A   Scattered Clouds
11:55 PM 36.9 °F 33.1 °F 33.3 °F 87% 29.96 in 10.0 mi NW 4.6 mph - N/A   Clear